FW6321 Weather Reports


time (UTC)temp
F
wind
direction
speed
knots
gust
knots
rain 1hr
in
rain 24hr
in
rain mn
in
humidity
%
barometer
mb
20260901111038 69 252 8.7 15.6 0.00 0.16 0.15 66 1020.8
20260901110533 70 255 7.0 14.8 0.00 0.16 0.15 66 1020.9
20260901110035 70 251 7.0 14.8 0.00 0.16 0.15 67 1020.7
20260901105536 70 240 7.8 14.8 0.00 0.16 0.15 67 1020.7
20260901105033 69 234 7.0 14.8 0.00 0.16 0.15 66 1020.7
20260901104536 69 249 7.0 13.9 0.00 0.16 0.15 66 1020.8
20260901104034 69 251 6.1 12.2 0.00 0.16 0.15 68 1020.7
20260901103534 68 224 6.1 11.3 0.00 0.16 0.15 70 1020.7
20260901103035 68 270 6.1 11.3 0.00 0.16 0.15 69 1020.8
20260901102533 68 236 7.0 13.0 0.00 0.16 0.15 71 1020.8
20260901102522 67 221 6.1 13.0 0.00 0.16 0.15 69 1020.8
20260901101533 68 284 7.0 13.0 0.00 0.16 0.15 69 1020.8
20260901101031 68 301 6.1 13.0 0.00 0.16 0.15 70 1020.6
20260901100532 68 266 5.2 12.2 0.00 0.16 0.15 70 1020.8
20260901100521 68 250 7.0 13.0 0.00 0.16 0.15 74 1020.7
20260901095531 68 217 7.0 13.0 0.00 0.16 0.15 72 1020.6
20260901095033 67 258 7.0 13.0 0.00 0.16 0.15 74 1020.7
20260901094530 67 231 7.8 13.0 0.00 0.16 0.15 73 1020.7
20260901094519 68 237 7.0 12.2 0.00 0.16 0.15 73 1020.7
20260901093532 68 233 6.1 12.2 0.00 0.16 0.15 75 1020.7
20260901093032 68 239 5.2 13.0 0.00 0.16 0.15 76 1020.5
20260901092532 67 264 7.0 13.9 0.00 0.16 0.15 76 1020.6
20260901092515 67 182 7.0 13.9 0.00 0.16 0.15 76 1020.6
20260901091531 67 245 6.1 12.2 0.00 0.16 0.15 77 1020.5
20260901091516 66 237 6.1 11.3 0.00 0.16 0.15 79 1020.4
20260901090533 66 266 7.0 11.3 0.00 0.16 0.15 78 1020.4
20260901090521 66 260 7.0 11.3 0.00 0.16 0.15 80 1020.5
20260901085532 66 254 7.0 13.9 0.00 0.16 0.15 81 1020.4
20260901085030 65 248 7.0 13.9 0.00 0.16 0.15 81 1020.4
20260901084532 65 226 6.1 13.9 0.00 0.16 0.15 81 1020.4
20260901084032 65 233 5.2 11.3 0.00 0.16 0.15 83 1020.3
20260901083533 65 243 5.2 11.3 0.00 0.16 0.15 85 1020.3
20260901083031 65 204 6.1 11.3 0.00 0.16 0.15 86 1020.1
20260901082532 65 245 5.2 11.3 0.00 0.16 0.15 88 1020.2
20260901082514 64 206 5.2 10.4 0.00 0.16 0.15 90 1020.0
20260901082009 64 279 4.3 10.4 0.00 0.16 0.15 94 1019.8
20260901081032 64 226 2.6 7.8 0.00 0.16 0.15 95 1019.9
20260901080531 63 246 3.5 7.8 0.00 0.16 0.15 96 1019.8
20260901080509 63 239 3.5 7.8 0.00 0.16 0.15 96 1019.8
20260901080016 62 249 3.5 8.7 0.00 0.16 0.15 97 1019.7
20260901075031 62 249 5.2 8.7 0.00 0.16 0.15 97 1019.6
20260901074534 62 272 5.2 8.7 0.00 0.16 0.15 97 1019.6
20260901074030 62 243 4.3 8.7 0.00 0.16 0.15 98 1019.4
20260901073533 62 243 4.3 7.8 0.00 0.16 0.15 98 1019.4
20260901073031 63 255 3.5 7.8 0.00 0.16 0.15 98 1019.4
20260901072534 63 226 2.6 6.1 0.00 0.16 0.15 98 1019.3
20260901072031 63 229 2.6 6.1 0.00 0.16 0.15 98 1019.3
20260901071529 63 239 1.7 6.1 0.00 0.16 0.15 99 1019.3
20260901071220 63 227 2.6 6.1 0.00 0.16 0.15 98 1019.2
20260901070935 63 204 2.6 5.2 0.00 0.16 0.15 98 1019.2
20260901070722 63 229 1.7 4.3 0.00 0.16 0.15 98 1019.3
20260901065025 63 200 1.7 4.3 0.00 0.16 0.15 98 1019.2
20260901064525 62 224 0.9 2.6 0.00 0.16 0.15 98 1019.1
20260901064026 62 218 0.9 2.6 0.00 0.16 0.15 98 1019.0
20260901063954 62 228 1.7 2.6 0.00 0.17 0.15 98 1019.0
20260901063726 62 226 0.9 2.6 0.00 0.16 0.15 98 1019.0
20260901062527 62 225 0.9 2.6 0.00 0.17 0.15 98 1018.9
20260901062022 62 200 0.9 2.6 0.00 0.17 0.15 98 1018.9
20260901061524 62 218 0.9 2.6 0.00 0.17 0.15 98 1018.8
20260901061024 62 229 1.7 3.5 0.00 0.17 0.15 98 1018.9
20260901060524 62 220 0.9 3.5 0.00 0.17 0.15 98 1018.8
20260901060022 62 186 1.7 3.5 0.00 0.17 0.15 98 1018.8
20260901055943 62 169 1.7 4.3 0.00 0.21 0.15 98 1018.8
20260901055928 62 169 0.9 2.6 0.00 0.20 0.15 98 1018.7
20260901055717 62 199 0.9 3.5 0.00 0.18 0.15 98 1018.8
20260901054514 62 195 2.6 4.3 0.00 0.21 0.15 98 1018.7
20260901054006 62 184 2.6 5.2 0.00 0.21 0.15 98 1018.7
20260901053005 62 164 2.6 5.2 0.00 0.21 0.15 98 1018.7
20260901052511 62 177 1.7 3.5 0.00 0.21 0.15 98 1018.7
20260901052005 62 170 1.7 3.5 0.00 0.21 0.15 98 1018.6
20260901051504 62 169 1.7 3.5 0.00 0.21 0.15 98 1018.5
20260901051006 62 169 1.7 3.5 0.00 0.21 0.15 98 1018.5
20260901050504 62 200 2.6 4.3 0.00 0.21 0.15 98 1018.4
20260901050003 62 199 1.7 4.3 0.00 0.21 0.15 98 1018.5
20260901045506 62 183 1.7 4.3 0.00 0.21 0.15 98 1018.4
20260901045004 62 197 1.7 5.2 0.00 0.21 0.15 98 1018.4
20260901044506 62 194 1.7 5.2 0.00 0.21 0.15 98 1018.4
20260901044003 62 216 1.7 3.5 0.00 0.21 0.15 98 1018.5
20260901043504 62 215 1.7 3.5 0.00 0.21 0.15 98 1018.4
20260901043437 62 220 1.7 5.2 0.00 0.21 0.15 98 1018.3
20260901042503 62 178 2.6 5.2 0.00 0.21 0.15 98 1018.3
20260901042002 62 186 1.7 5.2 0.00 0.21 0.15 98 1018.1
20260901041949 62 191 1.7 4.3 0.00 0.21 0.15 98 1018.1
20260901041003 62 186 2.6 4.3 0.00 0.21 0.15 98 1018.1
20260901040505 62 187 2.6 6.1 0.00 0.21 0.15 98 1018.0
20260901040007 62 182 1.7 6.1 0.00 0.21 0.15 98 1018.0
20260901035945 62 185 1.7 3.5 0.01 0.21 0.15 98 1017.9
20260901035004 62 228 1.7 3.5 0.01 0.21 0.15 98 1018.1
20260901034503 62 214 1.7 5.2 0.01 0.21 0.15 98 1018.1
20260901034431 62 195 1.7 3.5 0.01 0.21 0.15 98 1018.0
20260901034422 62 216 1.7 3.5 0.01 0.21 0.15 98 1018.0
20260901034204 62 219 2.6 5.2 0.01 0.21 0.15 98 1017.9
20260901032506 62 225 1.7 4.3 0.01 0.21 0.15 98 1018.0
20260901032004 62 222 1.7 5.2 0.01 0.21 0.15 97 1018.0
20260901031504 62 191 1.7 5.2 0.01 0.21 0.15 97 1017.9
20260901031004 62 195 1.7 3.5 0.01 0.21 0.15 97 1017.9
20260901030505 62 202 1.7 4.3 0.01 0.21 0.15 97 1017.9
20260901030004 62 199 2.6 5.2 0.01 0.21 0.15 97 1017.9
20260901025504 62 182 2.6 5.2 0.00 0.20 0.14 97 1017.8
20260901024957 62 198 2.6 4.3 0.00 0.20 0.14 97 1017.7
20260901024458 62 188 1.7 4.3 0.00 0.20 0.14 97 1017.8
20260901023955 62 199 1.7 4.3 0.00 0.20 0.14 97 1017.8
20260901023458 62 201 2.6 4.3 0.00 0.20 0.14 97 1017.7
20260901022954 62 210 1.7 4.3 0.00 0.20 0.14 97 1017.6
20260901022456 62 186 1.7 4.3 0.00 0.20 0.14 97 1017.6
20260901021959 62 218 1.7 3.5 0.00 0.20 0.14 97 1017.6
20260901021457 61 214 1.7 4.3 0.00 0.20 0.14 97 1017.7
20260901020958 61 230 1.7 4.3 0.00 0.20 0.14 97 1017.7
20260901020929 61 199 1.7 4.3 0.00 0.20 0.14 97 1017.6
20260901015956 61 193 1.7 4.3 0.00 0.20 0.14 97 1017.6
20260901015932 61 177 1.7 4.3 0.00 0.20 0.14 97 1017.6
20260901015436 60 175 1.7 3.5 0.00 0.20 0.14 97 1017.5
20260901014931 60 185 1.7 3.5 0.00 0.20 0.14 97 1017.6
20260901013954 60 187 0.9 3.5 0.00 0.20 0.14 96 1017.6
20260901013454 60 205 0.9 2.6 0.00 0.20 0.14 96 1017.5
20260901012950 60 206 0.9 2.6 0.00 0.20 0.14 96 1017.5
20260901012452 60 181 0.0 1.7 0.00 0.20 0.14 96 1017.5
20260901011949 60 168 0.0 1.7 0.00 0.20 0.14 96 1017.4
20260901011914 60 168 1.7 4.3 0.00 0.20 0.14 96 1017.5
20260901011652 60 168 0.9 4.3 0.00 0.20 0.14 96 1017.4
20260901010447 60 177 1.7 3.5 0.00 0.20 0.14 96 1017.5
20260901005948 60 183 1.7 4.3 0.00 0.20 0.14 96 1017.6
20260901005448 60 187 2.6 5.2 0.00 0.20 0.14 96 1017.6
20260901004949 60 199 2.6 5.2 0.00 0.20 0.14 95 1017.5
20260901004448 60 181 1.7 4.3 0.00 0.20 0.14 95 1017.5
20260901003944 60 185 1.7 3.5 0.00 0.20 0.14 95 1017.5
20260901003444 60 186 1.7 4.3 0.00 0.20 0.14 95 1017.4
20260901002944 60 188 2.6 4.3 0.00 0.20 0.14 95 1017.5
20260901002925 60 172 2.6 3.5 0.00 0.20 0.14 95 1017.5
20260901001946 60 183 1.7 3.5 0.00 0.20 0.14 95 1017.5
20260901001444 60 183 1.7 3.5 0.00 0.20 0.14 95 1017.5
20260901000945 60 188 1.7 3.5 0.00 0.20 0.14 95 1017.4
20260901000450 60 199 1.7 4.3 0.00 0.20 0.14 94 1017.4
20260831235946 60 201 1.7 4.3 0.00 0.20 0.14 95 1017.4
20260831235444 61 183 2.6 4.3 0.00 0.20 0.14 94 1017.3
20260831234945 61 183 2.6 5.2 0.00 0.20 0.14 94 1017.4
20260831234443 61 187 2.6 6.1 0.00 0.20 0.14 94 1017.3
20260831233944 61 191 2.6 6.1 0.00 0.20 0.14 94 1017.4
20260831233446 61 185 2.6 4.3 0.00 0.20 0.14 94 1017.4
20260831232945 61 172 2.6 7.0 0.02 0.20 0.14 94 1017.4
20260831232443 61 181 2.6 7.0 0.06 0.20 0.14 93 1017.3
20260831231941 61 180 2.6 4.3 0.14 0.20 0.14 93 1017.4
20260831231442 61 177 1.7 3.5 0.14 0.20 0.14 93 1017.3
20260831230936 61 212 1.7 5.2 0.14 0.20 0.14 93 1017.2
20260831230924 61 217 2.6 8.7 0.14 0.20 0.14 92 1017.1
20260831225935 62 237 2.6 8.7 0.14 0.20 0.14 92 1017.2
20260831225438 62 206 2.6 7.0 0.14 0.20 0.14 93 1017.3
20260831224935 63 218 2.6 7.0 0.14 0.20 0.14 92 1017.2
20260831224438 63 246 3.5 7.8 0.14 0.20 0.14 92 1017.2
20260831223934 64 198 3.5 7.8 0.14 0.20 0.14 92 1017.2
20260831223435 64 175 3.5 8.7 0.14 0.20 0.14 92 1017.0
20260831222948 65 256 5.2 12.2 0.08 0.14 0.08 92 1017.2
20260831222933 65 251 5.2 12.2 0.12 0.18 0.11 92 1017.1
20260831221932 65 254 5.2 7.8 0.00 0.06 0.00 91 1017.3
20260831221432 65 219 4.3 7.8 0.00 0.06 0.00 91 1017.0
20260831220933 65 171 3.5 7.8 0.00 0.06 0.00 91 1016.9
20260831220432 65 214 4.3 9.6 0.00 0.06 0.00 91 1016.9
20260831215932 65 218 4.3 9.6 0.00 0.06 0.06 91 1016.8
20260831215430 65 196 4.3 11.3 0.00 0.06 0.06 91 1016.7
20260831214944 65 199 4.3 9.6 0.00 0.06 0.06 91 1016.8
20260831214933 65 245 3.5 11.3 0.00 0.06 0.06 91 1016.7
20260831213934 65 215 4.3 8.7 0.00 0.06 0.06 92 1016.8
20260831213929 65 216 4.3 9.6 0.00 0.06 0.06 92 1016.7
20260831212932 65 226 4.3 9.6 0.00 0.06 0.06 92 1016.7
20260831212431 65 233 4.3 9.6 0.00 0.06 0.06 91 1016.7
20260831211933 65 227 4.3 9.6 0.00 0.06 0.06 91 1016.6
20260831211907 66 201 4.3 9.6 0.00 0.06 0.06 92 1016.6
20260831210932 66 189 4.3 9.6 0.00 0.06 0.06 91 1016.6
20260831210432 66 238 3.5 7.8 0.00 0.06 0.06 91 1016.5
20260831205934 66 214 3.5 7.8 0.00 0.06 0.06 91 1016.4
20260831205913 66 233 3.5 7.0 0.00 0.06 0.06 90 1016.4
20260831204930 66 213 3.5 11.3 0.00 0.06 0.06 90 1016.4
20260831204431 66 218 4.3 11.3 0.00 0.06 0.06 89 1016.5
20260831204412 66 210 4.3 10.4 0.00 0.06 0.06 89 1016.4
20260831203434 66 217 4.3 9.6 0.00 0.06 0.06 89 1016.3
20260831202931 66 229 4.3 9.6 0.00 0.06 0.06 88 1016.3
20260831202430 66 215 4.3 9.6 0.00 0.06 0.06 88 1016.3
20260831201933 66 237 4.3 8.7 0.00 0.06 0.06 88 1016.3
20260831201433 66 248 5.2 10.4 0.00 0.06 0.06 88 1016.3
20260831200931 66 206 5.2 10.4 0.00 0.06 0.06 87 1016.2
20260831200432 66 235 5.2 11.3 0.00 0.06 0.06 87 1016.2
20260831195932 66 220 6.1 11.3 0.00 0.06 0.06 87 1016.2
20260831195431 66 255 4.3 9.6 0.00 0.06 0.06 87 1016.1
20260831194933 66 233 4.3 11.3 0.00 0.06 0.06 87 1016.1
20260831194915 66 210 4.3 11.3 0.00 0.06 0.06 86 1015.9
20260831193933 66 204 3.5 8.7 0.00 0.06 0.06 86 1015.9
20260831193431 65 229 4.3 7.0 0.00 0.06 0.06 85 1015.8
20260831192932 65 236 4.3 8.7 0.00 0.06 0.06 84 1015.8
20260831192906 65 216 4.3 8.7 0.00 0.06 0.06 83 1015.8
20260831191930 65 229 4.3 7.8 0.00 0.06 0.06 83 1015.6
20260831191431 66 235 3.5 7.8 0.00 0.06 0.06 82 1015.6
20260831191417 66 181 3.5 8.7 0.00 0.06 0.06 82 1015.5
20260831190433 66 212 4.3 8.7 0.00 0.06 0.06 82 1015.4
20260831190418 66 242 4.3 8.7 0.00 0.06 0.06 81 1015.4
20260831185915 66 204 3.5 8.7 0.00 0.06 0.06 81 1015.4
20260831184931 66 205 3.5 7.0 0.00 0.06 0.06 81 1015.3
20260831184430 66 229 3.5 7.8 0.00 0.06 0.06 80 1015.3
20260831183932 66 210 3.5 7.8 0.00 0.06 0.06 80 1015.3
20260831183431 66 254 3.5 7.0 0.00 0.06 0.06 80 1015.2
20260831182931 66 225 4.3 10.4 0.00 0.06 0.06 80 1015.0
20260831182432 66 240 4.3 10.4 0.00 0.06 0.06 80 1015.1
20260831181932 66 241 4.3 9.6 0.00 0.06 0.06 79 1014.9
20260831181434 66 197 5.2 10.4 0.00 0.06 0.06 79 1014.8
20260831180932 66 243 6.1 11.3 0.00 0.06 0.06 79 1014.8
20260831180432 66 224 6.1 11.3 0.00 0.06 0.06 79 1014.6
20260831175931 67 240 6.1 12.2 0.00 0.06 0.06 79 1014.6
20260831175430 67 210 7.8 16.5 0.00 0.06 0.06 79 1014.5
20260831174931 67 230 7.0 16.5 0.00 0.06 0.06 79 1014.5
20260831174430 67 232 7.0 14.8 0.00 0.06 0.06 79 1014.5
20260831173932 67 204 7.8 14.8 0.00 0.06 0.06 79 1014.3
20260831173432 67 237 7.8 14.8 0.00 0.06 0.06 79 1014.2
20260831172933 67 255 8.7 14.8 0.00 0.06 0.06 80 1014.3
20260831172432 67 232 8.7 14.8 0.00 0.06 0.06 80 1014.2
20260831171933 67 245 7.8 13.0 0.00 0.06 0.06 81 1014.2
20260831171432 66 235 7.0 13.0 0.00 0.06 0.06 83 1014.0
20260831170933 66 229 7.0 13.0 0.01 0.06 0.06 84 1014.0
20260831170436 66 241 7.0 11.3 0.01 0.06 0.06 85 1013.8
20260831165932 65 233 5.2 12.2 0.01 0.06 0.06 86 1013.8
20260831165432 65 239 3.5 12.2 0.01 0.06 0.06 86 1013.7
20260831164928 65 253 3.5 7.8 0.01 0.06 0.06 86 1013.7
20260831164427 65 249 4.3 7.8 0.01 0.06 0.06 86 1013.8
20260831163928 65 248 4.3 10.4 0.01 0.06 0.06 86 1013.7
20260831163915 65 262 5.2 10.4 0.01 0.06 0.06 85 1013.7
20260831163407 65 212 6.1 12.2 0.01 0.06 0.06 84 1013.6
20260831162430 65 237 7.8 13.0 0.01 0.06 0.06 83 1013.5
20260831161931 65 233 8.7 15.6 0.01 0.06 0.06 82 1013.6
20260831161430 66 234 9.6 18.2 0.01 0.06 0.06 81 1013.6
20260831160930 67 252 10.4 23.5 0.00 0.06 0.06 79 1013.6
20260831160428 68 241 10.4 23.5 0.00 0.06 0.06 77 1013.4
20260831155931 68 231 10.4 21.7 0.00 0.06 0.06 75 1013.3
20260831155428 68 270 10.4 21.7 0.00 0.06 0.06 74 1013.2
20260831154931 69 231 10.4 21.7 0.00 0.06 0.06 74 1013.1
20260831154919 69 187 10.4 21.7 0.00 0.06 0.06 74 1013.1
20260831153929 68 247 9.6 17.4 0.00 0.06 0.06 75 1013.0
20260831153428 68 250 9.6 17.4 0.00 0.06 0.06 76 1012.9
20260831152928 68 216 10.4 20.9 0.00 0.06 0.06 77 1013.0
20260831152428 68 211 10.4 20.9 0.00 0.06 0.06 76 1012.9
20260831151929 68 234 9.6 20.0 0.00 0.06 0.06 76 1012.9
20260831151918 68 230 8.7 20.0 0.00 0.06 0.06 76 1012.8
20260831150926 68 252 10.4 21.7 0.00 0.06 0.06 76 1012.7
20260831150905 68 249 10.4 20.9 0.00 0.06 0.06 74 1012.6
20260831150630 68 265 10.4 21.7 0.00 0.06 0.06 75 1012.7
20260831145913 69 235 12.2 21.7 0.00 0.06 0.06 74 1012.6
20260831144923 68 249 12.2 21.7 0.00 0.06 0.06 75 1012.6
20260831144424 68 223 13.0 22.6 0.00 0.06 0.06 74 1012.5
20260831143924 68 243 13.0 22.6 0.00 0.06 0.06 73 1012.5
20260831143915 69 254 11.3 22.6 0.00 0.06 0.06 72 1012.3
20260831142923 68 208 10.4 18.2 0.00 0.06 0.06 75 1012.3
20260831142423 68 241 11.3 23.5 0.00 0.06 0.06 75 1012.2
20260831141921 68 214 12.2 23.5 0.00 0.06 0.06 74 1012.1
20260831141416 68 231 11.3 24.3 0.00 0.06 0.06 73 1012.0
20260831140913 68 206 10.4 24.3 0.00 0.06 0.06 71 1011.9
20260831140857 69 229 11.3 23.5 0.00 0.06 0.06 70 1011.8
20260831140356 69 275 11.3 23.5 0.00 0.06 0.06 69 1011.6
20260831135414 69 214 10.4 23.5 0.00 0.06 0.06 70 1011.4
20260831135346 69 216 12.2 25.2 0.00 0.06 0.06 70 1011.4
20260831134414 69 235 12.2 25.2 0.00 0.06 0.06 69 1011.4
20260831133911 69 229 9.6 22.6 0.00 0.06 0.06 69 1011.4
20260831133410 70 242 11.3 26.1 0.00 0.06 0.06 70 1011.4
20260831132910 69 233 13.9 26.1 0.00 0.06 0.06 70 1011.2
20260831132410 69 180 13.9 26.1 0.00 0.06 0.06 69 1011.3
20260831132358 69 239 13.0 25.2 0.00 0.06 0.06 70 1011.3
20260831131410 70 239 12.2 26.9 0.00 0.06 0.06 68 1011.1
20260831130908 70 229 11.3 26.9 0.00 0.06 0.06 70 1011.0
20260831130404 69 233 9.6 17.4 0.00 0.06 0.06 74 1011.0
20260831125906 67 216 11.3 20.9 0.00 0.06 0.06 76 1010.9
20260831125404 68 241 13.0 25.2 0.00 0.06 0.06 74 1010.9
20260831124909 67 247 13.0 25.2 0.00 0.06 0.06 74 1010.6
20260831124403 68 227 12.2 24.3 0.00 0.06 0.06 74 1010.7
20260831123904 68 235 12.2 24.3 0.00 0.06 0.06 74 1010.6
20260831123357 68 251 9.6 20.9 0.00 0.06 0.06 74 1010.5
20260831122853 69 212 9.6 23.5 0.00 0.06 0.06 73 1010.6
20260831122345 69 236 10.4 23.5 0.00 0.06 0.06 71 1010.4
20260831121838 70 236 10.4 21.7 0.00 0.06 0.06 71 1010.5
20260831121335 69 229 12.2 21.7 0.00 0.06 0.06 71 1010.3
20260831120833 69 228 12.2 21.7 0.00 0.06 0.06 70 1010.2
20260831120333 69 281 13.0 28.7 0.00 0.06 0.06 70 1010.3
20260831115833 69 227 13.9 28.7 0.00 0.06 0.06 71 1010.3
20260831115331 68 236 13.0 25.2 0.00 0.06 0.06 72 1010.2
20260831115318 67 214 10.4 21.7 0.00 0.06 0.06 74 1010.1
20260831114817 67 278 10.4 21.7 0.00 0.06 0.06 75 1010.0
20260831114321 68 92 9.6 18.2 0.00 0.06 0.06 77 1010.0
20260831113334 68 219 7.8 18.2 0.00 0.06 0.06 78 1009.9
20260831113316 68 241 7.8 17.4 0.00 0.06 0.06 80 1009.8
20260831113041 68 192 7.0 17.4 0.00 0.06 0.06 80 1009.9
20260831112315 68 188 7.8 16.5 0.00 0.06 0.06 79 1009.7
20260831111332 68 252 8.7 17.4 0.00 0.06 0.06 80 1009.7